"Sample Date","Sample Time","Sensor Name","Sample Value","Units","Flow Rate","Sample Interval","Sample Volume","Laser Status","Number Channels","Micron Size 0","Counts/Channel 0","Micron Size 1","Counts/Channel 1","Micron Size 2","Counts/Channel 2","Micron Size 3","Counts/Channel 3","Micron Size 4","Counts/Channel 4","Micron Size 5","Counts/Channel 5","Micron Size 6","Counts/Channel 6","Micron Size 7","Counts/Channel 7","Micron Size 8","Counts/Channel 8","Micron Size 9","Counts/Channel 9","Micron Size 10","Counts/Channel 10","Micron Size 11","Counts/Channel 11","Micron Size 12","Counts/Channel 12","Micron Size 13","Counts/Channel 13","Micron Size 14","Counts/Channel 14","Micron Size 15","Counts/Channel 15","Micron Size 16","Counts/Channel 16","Micron Size 17","Counts/Channel 17","Micron Size 18","Counts/Channel 18","Micron Size 19","Counts/Channel 19","Micron Size 20","Counts/Channel 20","Micron Size 21","Counts/Channel 21","Micron Size 22","Counts/Channel 22","Micron Size 23","Counts/Channel 23","Micron Size 24","Counts/Channel 24","Micron Size 25","Counts/Channel 25","Micron Size 26","Counts/Channel 26","Micron Size 27","Counts/Channel 27","Micron Size 28","Counts/Channel 28","Micron Size 29","Counts/Channel 29","Micron Size 30","Counts/Channel 30","Micron Size 31","Counts/Channel 31"
"07/04/06","22:00:02","AMMA06",57303.000,"cc",28299.272,6.00,2829.927,1,6,0.100,26104.000,0.200,27257.000,0.300,3115.000,0.500,492.000,1.000,335.000,5.000,0
"07/04/06","22:00:08","AMMA06",57548.000,"cc",28295.270,6.00,2829.527,1,6,0.100,26463.000,0.200,27305.000,0.300,3012.000,0.500,445.000,1.000,323.000,5.000,0
"07/04/06","22:00:14","AMMA06",57428.000,"cc",28289.492,6.00,2828.950,1,6,0.100,26424.000,0.200,27163.000,0.300,3088.000,0.500,468.000,1.000,285.000,5.000,0
"07/04/06","22:00:20","AMMA06",57532.000,"cc",28336.322,6.00,2833.632,1,6,0.100,26431.000,0.200,27288.000,0.300,3029.000,0.500,469.000,1.000,315.000,5.000,0
"07/04/06","22:00:26","AMMA06",57799.000,"cc",28314.004,6.00,2831.401,1,6,0.100,26769.000,0.200,27168.000,0.300,3076.000,0.500,463.000,1.000,323.000,5.000,0
"07/04/06","22:00:32","AMMA06",58013.000,"cc",28338.023,6.00,2833.803,1,6,0.100,26508.000,0.200,27699.000,0.300,3058.000,0.500,473.000,1.000,275.000,5.000,0
"07/04/06","22:00:38","AMMA06",57937.000,"cc",28342.984,6.00,2834.299,1,6,0.100,26712.000,0.200,27331.000,0.300,3129.000,0.500,478.000,1.000,287.000,5.000,0
"07/04/06","22:00:44","AMMA06",58121.000,"cc",28303.551,6.00,2830.355,1,6,0.100,26966.000,0.200,27331.000,0.300,3073.000,0.500,451.000,1.000,300.000,5.000,0
"07/04/06","22:00:50","AMMA06",57589.000,"cc",28314.635,6.00,2831.464,1,6,0.100,26310.000,0.200,27394.000,0.300,3082.000,0.500,496.000,1.000,307.000,5.000,0
"07/04/06","22:00:56","AMMA06",57745.000,"cc",28356.248,6.00,2835.625,1,6,0.100,26795.000,0.200,27157.000,0.300,3002.000,0.500,470.000,1.000,321.000,5.000,0
"07/04/06","22:01:02","AMMA06",57305.000,"cc",28278.981,6.00,2827.898,1,6,0.100,26360.000,0.200,27121.000,0.300,3011.000,0.500,487.000,1.000,326.000,5.000,0
"07/04/06","22:01:08","AMMA06",57726.000,"cc",28365.859,6.00,2836.586,1,6,0.100,26782.000,0.200,27067.000,0.300,3085.000,0.500,489.000,1.000,303.000,5.000,0
"07/04/06","22:01:14","AMMA06",57609.000,"cc",28323.941,6.00,2832.394,1,6,0.100,26763.000,0.200,27044.000,0.300,2978.000,0.500,511.000,1.000,313.000,5.000,0
"07/04/06","22:01:20","AMMA06",57828.000,"cc",28347.691,6.00,2834.769,1,6,0.100,26857.000,0.200,27203.000,0.300,2988.000,0.500,474.000,1.000,306.000,5.000,0
"07/04/06","22:01:26","AMMA06",57857.000,"cc",28333.428,6.00,2833.343,1,6,0.100,26751.000,0.200,27211.000,0.300,3078.000,0.500,483.000,1.000,334.000,5.000,0
"07/04/06","22:01:32","AMMA06",58069.000,"cc",28269.941,6.00,2826.994,1,6,0.100,27023.000,0.200,27232.000,0.300,3019.000,0.500,493.000,1.000,302.000,5.000,0
"07/04/06","22:01:38","AMMA06",57854.000,"cc",28300.738,6.00,2830.074,1,6,0.100,26802.000,0.200,27241.000,0.300,2978.000,0.500,505.000,1.000,328.000,5.000,0
"07/04/06","22:01:44","AMMA06",57560.000,"cc",28363.113,6.00,2836.312,1,6,0.100,26613.000,0.200,27137.000,0.300,2999.000,0.500,511.000,1.000,300.000,5.000,0
"07/04/06","22:01:50","AMMA06",57875.000,"cc",28297.191,6.00,2829.719,1,6,0.100,26932.000,0.200,27020.000,0.300,3071.000,0.500,506.000,1.000,346.000,5.000,0
"07/04/06","22:01:56","AMMA06",57864.000,"cc",28289.106,6.00,2828.911,1,6,0.100,27142.000,0.200,26875.000,0.300,3066.000,0.500,478.000,1.000,303.000,5.000,0
"07/04/06","22:02:02","AMMA06",57711.000,"cc",28354.549,6.00,2835.455,1,6,0.100,26779.000,0.200,27103.000,0.300,3047.000,0.500,465.000,1.000,317.000,5.000,0
"07/04/06","22:02:08","AMMA06",57770.000,"cc",28326.406,6.00,2832.641,1,6,0.100,27065.000,0.200,26884.000,0.300,3008.000,0.500,495.000,1.000,318.000,5.000,0
"07/04/06","22:02:14","AMMA06",57835.000,"cc",28358.721,6.00,2835.872,1,6,0.100,26739.000,0.200,27332.000,0.300,2972.000,0.500,482.000,1.000,310.000,5.000,0
"07/04/06","22:02:20","AMMA06",57159.000,"cc",28328.756,6.00,2832.876,1,6,0.100,26651.000,0.200,26688.000,0.300,2985.000,0.500,485.000,1.000,350.000,5.000,0
"07/04/06","22:02:26","AMMA06",57703.000,"cc",28259.522,6.00,2825.952,1,6,0.100,26937.000,0.200,26929.000,0.300,3050.000,0.500,484.000,1.000,303.000,5.000,0
"07/04/06","22:02:32","AMMA06",57940.000,"cc",28285.449,6.00,2828.545,1,6,0.100,26807.000,0.200,27302.000,0.300,2990.000,0.500,532.000,1.000,309.000,5.000,0
"07/04/06","22:02:38","AMMA06",57392.000,"cc",28322.520,6.00,2832.252,1,6,0.100,26703.000,0.200,26979.000,0.300,2961.000,0.500,463.000,1.000,286.000,5.000,0
"07/04/06","22:02:44","AMMA06",57960.000,"cc",28351.025,6.00,2835.103,1,6,0.100,27003.000,0.200,27118.000,0.300,2998.000,0.500,513.000,1.000,328.000,5.000,0
"07/04/06","22:02:50","AMMA06",57416.000,"cc",28304.215,6.00,2830.422,1,6,0.100,26573.000,0.200,27049.000,0.300,2979.000,0.500,489.000,1.000,326.000,5.000,0
"07/04/06","22:02:56","AMMA06",57325.000,"cc",28332.566,6.00,2833.257,1,6,0.100,26469.000,0.200,26976.000,0.300,3052.000,0.500,461.000,1.000,367.000,5.000,0
"07/04/06","22:03:02","AMMA06",57611.000,"cc",28277.996,6.00,2827.800,1,6,0.100,26529.000,0.200,27177.000,0.300,3046.000,0.500,539.000,1.000,320.000,5.000,0
"07/04/06","22:03:08","AMMA06",57482.000,"cc",28313.320,6.00,2831.332,1,6,0.100,26678.000,0.200,26935.000,0.300,3050.000,0.500,504.000,1.000,315.000,5.000,0
"07/04/06","22:03:14","AMMA06",57576.000,"cc",28359.145,6.00,2835.915,1,6,0.100,26424.000,0.200,27286.000,0.300,3041.000,0.500,512.000,1.000,313.000,5.000,0
"07/04/06","22:03:20","AMMA06",57343.000,"cc",28345.729,6.00,2834.573,1,6,0.100,26181.000,0.200,27371.000,0.300,3028.000,0.500,456.000,1.000,307.000,5.000,0
"07/04/06","22:03:26","AMMA06",57666.000,"cc",28326.631,6.00,2832.663,1,6,0.100,26115.000,0.200,27687.000,0.300,3120.000,0.500,453.000,1.000,291.000,5.000,0
"07/04/06","22:03:32","AMMA06",57402.000,"cc",28285.990,6.00,2828.599,1,6,0.100,26228.000,0.200,27288.000,0.300,3053.000,0.500,505.000,1.000,328.000,5.000,0
"07/04/06","22:03:38","AMMA06",57237.000,"cc",28259.324,6.00,2825.933,1,6,0.100,26275.000,0.200,27185.000,0.300,2986.000,0.500,491.000,1.000,300.000,5.000,0
"07/04/06","22:03:44","AMMA06",57254.000,"cc",28340.697,6.00,2834.070,1,6,0.100,26152.000,0.200,27254.000,0.300,3050.000,0.500,493.000,1.000,305.000,5.000,0
"07/04/06","22:03:50","AMMA06",57307.000,"cc",28377.904,6.00,2837.791,1,6,0.100,26092.000,0.200,27334.000,0.300,3089.000,0.500,479.000,1.000,313.000,5.000,0
"07/04/06","22:03:56","AMMA06",57786.000,"cc",28277.996,6.00,2827.800,1,6,0.100,26326.000,0.200,27596.000,0.300,3112.000,0.500,456.000,1.000,296.000,5.000,0
"07/04/06","22:04:02","AMMA06",57204.000,"cc",28311.098,6.00,2831.110,1,6,0.100,25803.000,0.200,27499.000,0.300,3116.000,0.500,463.000,1.000,323.000,5.000,0
"07/04/06","22:04:08","AMMA06",57647.000,"cc",28309.795,6.00,2830.980,1,6,0.100,26236.000,0.200,27510.000,0.300,3166.000,0.500,451.000,1.000,284.000,5.000,0
"07/04/06","22:04:14","AMMA06",57936.000,"cc",28316.430,6.00,2831.643,1,6,0.100,26273.000,0.200,27798.000,0.300,3105.000,0.500,435.000,1.000,325.000,5.000,0
"07/04/06","22:04:20","AMMA06",57664.000,"cc",28329.637,6.00,2832.964,1,6,0.100,26024.000,0.200,27649.000,0.300,3209.000,0.500,472.000,1.000,310.000,5.000,0
"07/04/06","22:04:26","AMMA06",57460.000,"cc",28329.955,6.00,2832.996,1,6,0.100,26007.000,0.200,27442.000,0.300,3234.000,0.500,480.000,1.000,297.000,5.000,0
"07/04/06","22:04:32","AMMA06",57793.000,"cc",28350.732,6.00,2835.074,1,6,0.100,26229.000,0.200,27610.000,0.300,3177.000,0.500,458.000,1.000,319.000,5.000,0
"07/04/06","22:04:38","AMMA06",57409.000,"cc",28348.340,6.00,2834.834,1,6,0.100,25976.000,0.200,27572.000,0.300,3105.000,0.500,451.000,1.000,305.000,5.000,0
"07/04/06","22:04:44","AMMA06",57439.000,"cc",28321.006,6.00,2832.101,1,6,0.100,25840.000,0.200,27626.000,0.300,3159.000,0.500,493.000,1.000,321.000,5.000,0
"07/04/06","22:04:50","AMMA06",57681.000,"cc",28309.070,6.00,2830.907,1,6,0.100,25857.000,0.200,27711.000,0.300,3323.000,0.500,463.000,1.000,327.000,5.000,0
"07/04/06","22:04:56","AMMA06",57560.000,"cc",28275.965,6.00,2827.597,1,6,0.100,25765.000,0.200,27641.000,0.300,3383.000,0.500,446.000,1.000,325.000,5.000,0
"07/04/06","22:05:02","AMMA06",57006.000,"cc",28276.240,6.00,2827.624,1,6,0.100,25377.000,0.200,27541.000,0.300,3289.000,0.500,500.000,1.000,299.000,5.000,0
"07/04/06","22:05:08","AMMA06",57174.000,"cc",28333.514,6.00,2833.352,1,6,0.100,25308.000,0.200,27876.000,0.300,3222.000,0.500,466.000,1.000,302.000,5.000,0
"07/04/06","22:05:14","AMMA06",57483.000,"cc",28296.078,6.00,2829.608,1,6,0.100,25579.000,0.200,27788.000,0.300,3263.000,0.500,500.000,1.000,353.000,5.000,0
"07/04/06","22:05:20","AMMA06",57033.000,"cc",28334.961,6.00,2833.496,1,6,0.100,25462.000,0.200,27549.000,0.300,3297.000,0.500,443.000,1.000,282.000,5.000,0
"07/04/06","22:05:26","AMMA06",56570.000,"cc",28316.953,6.00,2831.696,1,6,0.100,25278.000,0.200,27301.000,0.300,3261.000,0.500,430.000,1.000,300.000,5.000,0
"07/04/06","22:05:32","AMMA06",57038.000,"cc",28297.422,6.00,2829.742,1,6,0.100,25265.000,0.200,27697.000,0.300,3308.000,0.500,464.000,1.000,304.000,5.000,0
"07/04/06","22:05:38","AMMA06",56569.000,"cc",28317.986,6.00,2831.799,1,6,0.100,25040.000,0.200,27477.000,0.300,3284.000,0.500,477.000,1.000,291.000,5.000,0
"07/04/06","22:05:44","AMMA06",56425.000,"cc",28271.059,6.00,2827.106,1,6,0.100,25121.000,0.200,27365.000,0.300,3237.000,0.500,456.000,1.000,246.000,5.000,0
"07/04/06","22:05:50","AMMA06",57091.000,"cc",28275.496,6.00,2827.550,1,6,0.100,25386.000,0.200,27702.000,0.300,3296.000,0.500,396.000,1.000,311.000,5.000,0
"07/04/06","22:05:56","AMMA06",56778.000,"cc",28390.262,6.00,2839.026,1,6,0.100,25496.000,0.200,27383.000,0.300,3191.000,0.500,444.000,1.000,264.000,5.000,0
"07/04/06","22:06:02","AMMA06",56871.000,"cc",28302.684,6.00,2830.269,1,6,0.100,25225.000,0.200,27733.000,0.300,3212.000,0.500,421.000,1.000,280.000,5.000,0
"07/04/06","22:06:08","AMMA06",56987.000,"cc",28294.734,6.00,2829.474,1,6,0.100,25309.000,0.200,27650.000,0.300,3283.000,0.500,444.000,1.000,301.000,5.000,0
"07/04/06","22:06:14","AMMA06",57213.000,"cc",28326.258,6.00,2832.626,1,6,0.100,25353.000,0.200,27835.000,0.300,3252.000,0.500,468.000,1.000,305.000,5.000,0
"07/04/06","22:06:20","AMMA06",56739.000,"cc",28248.354,6.00,2824.835,1,6,0.100,25278.000,0.200,27495.000,0.300,3224.000,0.500,448.000,1.000,294.000,5.000,0
"07/04/06","22:06:26","AMMA06",56815.000,"cc",28318.004,6.00,2831.801,1,6,0.100,25121.000,0.200,27650.000,0.300,3287.000,0.500,431.000,1.000,326.000,5.000,0
"07/04/06","22:06:32","AMMA06",57211.000,"cc",28383.529,6.00,2838.353,1,6,0.100,25355.000,0.200,27911.000,0.300,3219.000,0.500,449.000,1.000,277.000,5.000,0
"07/04/06","22:06:38","AMMA06",57380.000,"cc",28295.297,6.00,2829.530,1,6,0.100,25553.000,0.200,27760.000,0.300,3277.000,0.500,460.000,1.000,330.000,5.000,0
"07/04/06","22:06:44","AMMA06",56758.000,"cc",28270.748,6.00,2827.075,1,6,0.100,25248.000,0.200,27533.000,0.300,3240.000,0.500,446.000,1.000,291.000,5.000,0
"07/04/06","22:06:50","AMMA06",57378.000,"cc",28294.813,6.00,2829.481,1,6,0.100,25575.000,0.200,27891.000,0.300,3211.000,0.500,408.000,1.000,293.000,5.000,0
"07/04/06","22:06:56","AMMA06",57117.000,"cc",28331.959,6.00,2833.196,1,6,0.100,25328.000,0.200,27748.000,0.300,3294.000,0.500,445.000,1.000,302.000,5.000,0
"07/04/06","22:07:02","AMMA06",57028.000,"cc",28296.098,6.00,2829.610,1,6,0.100,25464.000,0.200,27524.000,0.300,3287.000,0.500,474.000,1.000,279.000,5.000,0
"07/04/06","22:07:08","AMMA06",56651.000,"cc",28376.074,6.00,2837.608,1,6,0.100,25411.000,0.200,27230.000,0.300,3296.000,0.500,442.000,1.000,272.000,5.000,0
"07/04/06","22:07:14","AMMA06",56953.000,"cc",28296.383,6.00,2829.638,1,6,0.100,25309.000,0.200,27636.000,0.300,3238.000,0.500,488.000,1.000,282.000,5.000,0
"07/04/06","22:07:20","AMMA06",56983.000,"cc",28358.816,6.00,2835.882,1,6,0.100,25287.000,0.200,27647.000,0.300,3279.000,0.500,461.000,1.000,309.000,5.000,0
"07/04/06","22:07:26","AMMA06",56628.000,"cc",28314.373,6.00,2831.438,1,6,0.100,25238.000,0.200,27423.000,0.300,3219.000,0.500,468.000,1.000,280.000,5.000,0
"07/04/06","22:07:32","AMMA06",57028.000,"cc",28349.381,6.00,2834.938,1,6,0.100,25318.000,0.200,27547.000,0.300,3354.000,0.500,490.000,1.000,319.000,5.000,0
"07/04/06","22:07:38","AMMA06",56960.000,"cc",28355.232,6.00,2835.523,1,6,0.100,25360.000,0.200,27585.000,0.300,3191.000,0.500,493.000,1.000,331.000,5.000,0
"07/04/06","22:07:44","AMMA06",56769.000,"cc",28240.377,6.00,2824.038,1,6,0.100,25220.000,0.200,27540.000,0.300,3243.000,0.500,428.000,1.000,338.000,5.000,0
"07/04/06","22:07:50","AMMA06",56695.000,"cc",28294.772,6.00,2829.477,1,6,0.100,25245.000,0.200,27366.000,0.300,3324.000,0.500,455.000,1.000,305.000,5.000,0
"07/04/06","22:07:56","AMMA06",56921.000,"cc",28363.797,6.00,2836.380,1,6,0.100,25292.000,0.200,27720.000,0.300,3194.000,0.500,458.000,1.000,257.000,5.000,0
"07/04/06","22:08:02","AMMA06",56806.000,"cc",28329.975,6.00,2832.998,1,6,0.100,25137.000,0.200,27677.000,0.300,3228.000,0.500,481.000,1.000,283.000,5.000,0
"07/04/06","22:08:08","AMMA06",57104.000,"cc",28192.830,6.00,2819.283,1,6,0.100,25621.000,0.200,27401.000,0.300,3295.000,0.500,458.000,1.000,329.000,5.000,0
"07/04/06","22:08:14","AMMA06",56844.000,"cc",28332.553,6.00,2833.255,1,6,0.100,25393.000,0.200,27491.000,0.300,3200.000,0.500,466.000,1.000,294.000,5.000,0
"07/04/06","22:08:20","AMMA06",57047.000,"cc",28323.818,6.00,2832.382,1,6,0.100,25626.000,0.200,27489.000,0.300,3166.000,0.500,460.000,1.000,306.000,5.000,0
"07/04/06","22:08:26","AMMA06",56980.000,"cc",28369.916,6.00,2836.992,1,6,0.100,25984.000,0.200,27126.000,0.300,3115.000,0.500,453.000,1.000,302.000,5.000,0
"07/04/06","22:08:32","AMMA06",56988.000,"cc",28334.570,6.00,2833.457,1,6,0.100,25954.000,0.200,27152.000,0.300,3140.000,0.500,469.000,1.000,273.000,5.000,0
"07/04/06","22:08:38","AMMA06",56263.000,"cc",28315.426,6.00,2831.543,1,6,0.100,25406.000,0.200,27017.000,0.300,3106.000,0.500,455.000,1.000,279.000,5.000,0
"07/04/06","22:08:44","AMMA06",56860.000,"cc",28360.254,6.00,2836.026,1,6,0.100,25851.000,0.200,27080.000,0.300,3187.000,0.500,441.000,1.000,301.000,5.000,0
"07/04/06","22:08:50","AMMA06",56446.000,"cc",28352.227,6.00,2835.223,1,6,0.100,25754.000,0.200,26820.000,0.300,3112.000,0.500,484.000,1.000,276.000,5.000,0
"07/04/06","22:08:56","AMMA06",56865.000,"cc",28354.957,6.00,2835.496,1,6,0.100,26050.000,0.200,26981.000,0.300,3103.000,0.500,443.000,1.000,288.000,5.000,0
"07/04/06","22:09:02","AMMA06",56637.000,"cc",28289.752,6.00,2828.975,1,6,0.100,26042.000,0.200,26669.000,0.300,3158.000,0.500,476.000,1.000,292.000,5.000,0
"07/04/06","22:09:08","AMMA06",57170.000,"cc",28257.328,6.00,2825.733,1,6,0.100,26088.000,0.200,27268.000,0.300,3072.000,0.500,440.000,1.000,302.000,5.000,0
"07/04/06","22:09:14","AMMA06",56687.000,"cc",28320.117,6.00,2832.012,1,6,0.100,25788.000,0.200,27143.000,0.300,2996.000,0.500,480.000,1.000,280.000,5.000,0
"07/04/06","22:09:20","AMMA06",56648.000,"cc",28314.148,6.00,2831.415,1,6,0.100,25803.000,0.200,27071.000,0.300,3004.000,0.500,478.000,1.000,292.000,5.000,0
"07/04/06","22:09:26","AMMA06",57121.000,"cc",28299.967,6.00,2829.997,1,6,0.100,26285.000,0.200,27038.000,0.300,3022.000,0.500,473.000,1.000,303.000,5.000,0
"07/04/06","22:09:32","AMMA06",56981.000,"cc",28298.652,6.00,2829.866,1,6,0.100,26322.000,0.200,26858.000,0.300,3001.000,0.500,476.000,1.000,324.000,5.000,0
"07/04/06","22:09:38","AMMA06",57010.000,"cc",28319.752,6.00,2831.975,1,6,0.100,26403.000,0.200,26897.000,0.300,2965.000,0.500,471.000,1.000,274.000,5.000,0
"07/04/06","22:09:44","AMMA06",56756.000,"cc",28311.248,6.00,2831.125,1,6,0.100,26381.000,0.200,26671.000,0.300,2968.000,0.500,438.000,1.000,298.000,5.000,0
"07/04/06","22:09:50","AMMA06",56775.000,"cc",28318.512,6.00,2831.851,1,6,0.100,26684.000,0.200,26403.000,0.300,2976.000,0.500,425.000,1.000,287.000,5.000,0
"07/04/06","22:09:56","AMMA06",56706.000,"cc",28295.943,6.00,2829.595,1,6,0.100,26406.000,0.200,26557.000,0.300,2955.000,0.500,453.000,1.000,335.000,5.000,0
"07/04/06","22:10:02","AMMA06",57077.000,"cc",28362.637,6.00,2836.264,1,6,0.100,26598.000,0.200,26672.000,0.300,3006.000,0.500,493.000,1.000,308.000,5.000,0
"07/04/06","22:10:08","AMMA06",56581.000,"cc",28329.951,6.00,2832.995,1,6,0.100,26427.000,0.200,26508.000,0.300,2938.000,0.500,428.000,1.000,280.000,5.000,0
"07/04/06","22:10:14","AMMA06",57156.000,"cc",28336.205,6.00,2833.621,1,6,0.100,26893.000,0.200,26592.000,0.300,2950.000,0.500,437.000,1.000,284.000,5.000,0
"07/04/06","22:10:20","AMMA06",56287.000,"cc",28287.768,6.00,2828.777,1,6,0.100,26270.000,0.200,26349.000,0.300,2946.000,0.500,416.000,1.000,306.000,5.000,0
"07/04/06","22:10:26","AMMA06",57023.000,"cc",28290.625,6.00,2829.063,1,6,0.100,26736.000,0.200,26725.000,0.300,2840.000,0.500,441.000,1.000,281.000,5.000,0
"07/04/06","22:10:32","AMMA06",57099.000,"cc",28299.770,6.00,2829.977,1,6,0.100,26746.000,0.200,26660.000,0.300,2979.000,0.500,429.000,1.000,285.000,5.000,0
"07/04/06","22:10:38","AMMA06",57324.000,"cc",28306.207,6.00,2830.621,1,6,0.100,26875.000,0.200,26721.000,0.300,2980.000,0.500,464.000,1.000,284.000,5.000,0
"07/04/06","22:10:44","AMMA06",57119.000,"cc",28340.440,6.00,2834.044,1,6,0.100,27155.000,0.200,26373.000,0.300,2833.000,0.500,458.000,1.000,300.000,5.000,0
"07/04/06","22:10:50","AMMA06",56814.000,"cc",28304.691,6.00,2830.469,1,6,0.100,26904.000,0.200,26364.000,0.300,2831.000,0.500,435.000,1.000,280.000,5.000,0
"07/04/06","22:10:56","AMMA06",57614.000,"cc",28330.889,6.00,2833.089,1,6,0.100,27372.000,0.200,26685.000,0.300,2754.000,0.500,484.000,1.000,319.000,5.000,0
"07/04/06","22:11:02","AMMA06",56859.000,"cc",28295.897,6.00,2829.590,1,6,0.100,26925.000,0.200,26347.000,0.300,2905.000,0.500,432.000,1.000,250.000,5.000,0
"07/04/06","22:11:08","AMMA06",57019.000,"cc",28395.113,6.00,2839.512,1,6,0.100,26910.000,0.200,26476.000,0.300,2854.000,0.500,490.000,1.000,289.000,5.000,0
"07/04/06","22:11:14","AMMA06",56858.000,"cc",28298.191,6.00,2829.819,1,6,0.100,26915.000,0.200,26445.000,0.300,2754.000,0.500,472.000,1.000,272.000,5.000,0
"07/04/06","22:11:20","AMMA06",56985.000,"cc",28307.113,6.00,2830.711,1,6,0.100,27005.000,0.200,26446.000,0.300,2813.000,0.500,447.000,1.000,274.000,5.000,0
"07/04/06","22:11:26","AMMA06",56729.000,"cc",28322.428,6.00,2832.243,1,6,0.100,26812.000,0.200,26368.000,0.300,2832.000,0.500,447.000,1.000,270.000,5.000,0
"07/04/06","22:11:32","AMMA06",57279.000,"cc",28373.070,6.00,2837.307,1,6,0.100,27193.000,0.200,26382.000,0.300,2921.000,0.500,494.000,1.000,289.000,5.000,0
"07/04/06","22:11:38","AMMA06",56646.000,"cc",28274.879,6.00,2827.488,1,6,0.100,26851.000,0.200,26205.000,0.300,2813.000,0.500,474.000,1.000,303.000,5.000,0
"07/04/06","22:11:44","AMMA06",56581.000,"cc",28298.793,6.00,2829.879,1,6,0.100,26907.000,0.200,26048.000,0.300,2854.000,0.500,472.000,1.000,300.000,5.000,0
"07/04/06","22:11:50","AMMA06",56548.000,"cc",28252.701,6.00,2825.270,1,6,0.100,26829.000,0.200,26078.000,0.300,2883.000,0.500,470.000,1.000,288.000,5.000,0
"07/04/06","22:11:56","AMMA06",56487.000,"cc",28327.592,6.00,2832.759,1,6,0.100,26889.000,0.200,25970.000,0.300,2877.000,0.500,450.000,1.000,301.000,5.000,0
"07/04/06","22:12:02","AMMA06",57066.000,"cc",28372.461,6.00,2837.246,1,6,0.100,27318.000,0.200,26076.000,0.300,2911.000,0.500,462.000,1.000,299.000,5.000,0
"07/04/06","22:12:08","AMMA06",57061.000,"cc",28309.617,6.00,2830.962,1,6,0.100,27104.000,0.200,26350.000,0.300,2884.000,0.500,444.000,1.000,279.000,5.000,0
"07/04/06","22:12:14","AMMA06",57061.000,"cc",28316.285,6.00,2831.629,1,6,0.100,26944.000,0.200,26474.000,0.300,2855.000,0.500,510.000,1.000,278.000,5.000,0
"07/04/06","22:12:20","AMMA06",56315.000,"cc",28312.742,6.00,2831.274,1,6,0.100,26767.000,0.200,25960.000,0.300,2830.000,0.500,437.000,1.000,321.000,5.000,0
"07/04/06","22:12:26","AMMA06",56463.000,"cc",28316.561,6.00,2831.656,1,6,0.100,26947.000,0.200,25968.000,0.300,2829.000,0.500,452.000,1.000,267.000,5.000,0
"07/04/06","22:12:32","AMMA06",56238.000,"cc",28292.186,6.00,2829.219,1,6,0.100,26909.000,0.200,25778.000,0.300,2805.000,0.500,471.000,1.000,275.000,5.000,0
"07/04/06","22:12:38","AMMA06",56806.000,"cc",28340.111,6.00,2834.011,1,6,0.100,27112.000,0.200,26182.000,0.300,2753.000,0.500,454.000,1.000,305.000,5.000,0
"07/04/06","22:12:44","AMMA06",57068.000,"cc",28311.752,6.00,2831.175,1,6,0.100,27214.000,0.200,26201.000,0.300,2853.000,0.500,490.000,1.000,310.000,5.000,0
"07/04/06","22:12:50","AMMA06",56990.000,"cc",28278.633,6.00,2827.864,1,6,0.100,27281.000,0.200,26060.000,0.300,2861.000,0.500,481.000,1.000,307.000,5.000,0
"07/04/06","22:12:56","AMMA06",57078.000,"cc",28298.627,6.00,2829.863,1,6,0.100,27217.000,0.200,26173.000,0.300,2895.000,0.500,501.000,1.000,292.000,5.000,0
"07/04/06","22:13:02","AMMA06",57156.000,"cc",28351.195,6.00,2835.120,1,6,0.100,27121.000,0.200,26542.000,0.300,2793.000,0.500,445.000,1.000,255.000,5.000,0
"07/04/06","22:13:08","AMMA06",56522.000,"cc",28323.395,6.00,2832.340,1,6,0.100,27029.000,0.200,26055.000,0.300,2724.000,0.500,428.000,1.000,286.000,5.000,0
"07/04/06","22:13:14","AMMA06",56979.000,"cc",28305.291,6.00,2830.529,1,6,0.100,27352.000,0.200,26117.000,0.300,2792.000,0.500,432.000,1.000,286.000,5.000,0
"07/04/06","22:13:20","AMMA06",57229.000,"cc",28317.490,6.00,2831.749,1,6,0.100,27397.000,0.200,26216.000,0.300,2851.000,0.500,465.000,1.000,300.000,5.000,0
"07/04/06","22:13:26","AMMA06",57074.000,"cc",28336.090,6.00,2833.609,1,6,0.100,27163.000,0.200,26428.000,0.300,2734.000,0.500,482.000,1.000,267.000,5.000,0
"07/04/06","22:13:32","AMMA06",57106.000,"cc",28348.383,6.00,2834.838,1,6,0.100,26884.000,0.200,26525.000,0.300,2898.000,0.500,463.000,1.000,336.000,5.000,0
"07/04/06","22:13:38","AMMA06",56441.000,"cc",28301.815,6.00,2830.182,1,6,0.100,26418.000,0.200,26385.000,0.300,2847.000,0.500,485.000,1.000,306.000,5.000,0
"07/04/06","22:13:44","AMMA06",56684.000,"cc",28296.520,6.00,2829.652,1,6,0.100,26513.000,0.200,26488.000,0.300,2941.000,0.500,428.000,1.000,314.000,5.000,0
"07/04/06","22:13:50","AMMA06",57178.000,"cc",28337.250,6.00,2833.725,1,6,0.100,26795.000,0.200,26679.000,0.300,2936.000,0.500,484.000,1.000,283.000,5.000,1.000
"07/04/06","22:13:56","AMMA06",56612.000,"cc",28294.947,6.00,2829.495,1,6,0.100,26141.000,0.200,26678.000,0.300,3035.000,0.500,465.000,1.000,293.000,5.000,0
"07/04/06","22:14:02","AMMA06",56657.000,"cc",28323.238,6.00,2832.324,1,6,0.100,26499.000,0.200,26486.000,0.300,2950.000,0.500,439.000,1.000,283.000,5.000,0
"07/04/06","22:14:08","AMMA06",57081.000,"cc",28302.647,6.00,2830.265,1,6,0.100,26739.000,0.200,26603.000,0.300,2988.000,0.500,458.000,1.000,293.000,5.000,0
"07/04/06","22:14:14","AMMA06",57521.000,"cc",28293.324,6.00,2829.333,1,6,0.100,26897.000,0.200,26860.000,0.300,2965.000,0.500,480.000,1.000,319.000,5.000,0